"Pseudo-MPEC" for P10Ijue

Created 2018 Jul 15 19:18:11 UT using Find_Orb

Click here for an explanation of pseudo-MPECs

 
 Astrometry: 
     P10Ijue  C2018 07 100jAstrometryq96l:McUjG=X;5%%@8;w\d-kk*qb%[-vtChiJ+DoF51
     P10Ijue  C2018 07 10,;MHPR'KDBHZa/KR9vnr1!n`y6OIuM(ik*?weDA.FUIU[UI1IACKF51
     P10Ijue  C2018 07 106)J2s_l^(]B5-FVomfrHGMK2wm/H]8Lc$E?dkWlOyHdaotVb:)d;F51
     P10Ijue  C2018 07 10VjNS]]UtP'7T'Wrr4?GhgeO\:_xTh=pE-DRD[.r15/f@85/W6wEVF51
     P10Ijue  C2018 07 11L[peZJ.Q@S8_\mTe]redacted;=+y^Dhm!%j5p\+5pUCGPP_H6u)W87
     P10Ijue  C2018 07 11)B@FM@*qbwMAAMVkca'3qJZ!!sI7HtQH;Ru5\Gw4Ns/UO!?7(RbRW87
     P10Ijue  C2018 07 11gc-:fx=lsHnhD#7kT%?M4tWimHK0XAMe[9dx`7!.%!R\8Cjq,kOOW87
     P10Ijue  C2018 07 11^w!^-Y%ZD;MbmgynvXJN:L+4h#t3RIr)J06)jJ(_wj,ejU;H%i=AW87
     P10Ijue KC2018 07 13oU8YOKeSwn#.*aR.ik+3wJWRe1/wS$yb2lBwE?k'OcY],$B@VGQ.807
     P10Ijue KC2018 07 132W@u.MTa5Js'lp2;)9jFM'-QJMaqXp]6seej3x=g`,kY4^*npEwc807
     P10Ijue KC2018 07 13jD6KQBOX)F6S^wK%:l?!]xiA(]kN[/rYyCdAsv%sf21m0\L$NkYf807
     P10Ijue KC2018 07 14CHaL,STgbaId]v:p([MlyKFD*fBSNn_[w\Z8+xu\8kRN3l@+Ek,D474
     P10Ijue KC2018 07 14Prf)4B[6HXr(qWZF9rlE6@3\:\,$\Ql?Qa3pcEBEy%=mw/8gOKJC474
     P10Ijue KC2018 07 14D,)f?SX^+8Er..=PSZ)2Qv/`iwi:!28a;M[n+tSCsK+(i[5NEOCP474

Station data:
(474) Mount John Observatory, Lake Tekapo  (S43.987388 E170.464960)  New
   Zealand.  Observers A. C. Gilmore, P. M. Kilmartin. Measurer P. M.
   Kilmartin. 1.0-m f/7.7 reflector + CCD.
(807) Cerro Tololo Observatory, La Serena  (S30.169136 W70.805900)  Chile.
   1.5-m Ritchey-Chrétien.
(F51) Pan-STARRS 1, Haleakala  (N20.707235 W156.255910)  US/Hawaii.
   Observers N. Primak, A. Schultz, S. Watters, J. Thiel, T. Goggia. Measurer
   PS1 Science Consortium. 1.8-m Ritchey-Chrétien + CCD.
(W87) Cerro Tololo-LCO C  (S30.167456 W70.804680)  Chile.

Orbital elements:  P10Ijue
   Perihelion 2018 Feb 22.685043 +/- 4.49 TT = 16:26:27 (JD 2458172.185043)
Epoch 2018 Jul 14.0 TT = JDT 2458313.5   Earth MOID: 0.3325   Ju: 0.1478
M  22.46164 +/- 2.0                 (J2000 ecliptic)          AutoNEOCP
n   0.15894738 +/- 0.0101           Peri.  203.20507 +/- 0.14
a   3.37520731 +/- 0.143            Node    18.29679 +/- 1.2
e   0.6056606 +/- 0.0191            Incl.   10.21940 +/- 0.15
P   6.20                   H 18.3   G  0.15   U  9.7  
q 1.33097715 +/- 0.00816    Q 5.41943747 +/- 0.301
From 14 observations 2018 July 10-14; mean residual 0".26
Residuals in arcseconds: 
180710 F51  .09-  .04-    180711 W87  .21+  .01+    180713 807  .06-  .03+    
180710 F51  .07-  .05+    180711 W87  .04-  .04-    180714 474  .12-  .92-    
180710 F51  .08-  .01+    180711 W87  .18+  .08+    180714 474  .53+  .40+    
180710 F51  .04-  .02-    180713 807  .07-  .01+    180714 474  .32-  .55+    
180711 W87  .12+  .02-    180713 807  .13-  .10-    

Ephemerides (geocentric):
Date (UTC) HH   RA              Dec         delta   r     elong  mag " sig PA
---- -- -- --  -------------   -----------  ------ ------ -----  --- ---- ---
2018 07 15 19  21 57 30.833   -31 48 57.54  1.0986 2.0312 147.6 20.9  .64 165
2018 07 15 20  21 57 28.103   -31 49 09.58  1.0987 2.0315 147.6 20.9  .67 165
2018 07 15 21  21 57 25.369   -31 49 21.59  1.0988 2.0318 147.7 20.9  .69 166
2018 07 15 22  21 57 22.633   -31 49 33.60  1.0989 2.0321 147.7 20.9  .71 166
2018 07 15 23  21 57 19.893   -31 49 45.59  1.0990 2.0324 147.8 20.9  .74 166
2018 07 16 00  21 57 17.151   -31 49 57.57  1.0991 2.0327 147.8 20.9  .76 167
2018 07 16 01  21 57 14.405   -31 50 09.53  1.0992 2.0330 147.8 20.9  .79 167
2018 07 16 02  21 57 11.656   -31 50 21.48  1.0993 2.0333 147.9 20.9  .81 167
2018 07 16 03  21 57 08.904   -31 50 33.42  1.0994 2.0335 147.9 20.9  .84 167
2018 07 16 04  21 57 06.149   -31 50 45.34  1.0995 2.0338 148.0 20.9  .86 168
2018 07 16 05  21 57 03.391   -31 50 57.25  1.0995 2.0341 148.0 20.9  .89 168
2018 07 16 06  21 57 00.630   -31 51 09.14  1.0996 2.0344 148.0 20.9  .91 168
2018 07 16 07  21 56 57.866   -31 51 21.02  1.0997 2.0347 148.1 20.9  .94 168
2018 07 16 08  21 56 55.099   -31 51 32.89  1.0998 2.0350 148.1 20.9  .96 169
2018 07 16 09  21 56 52.328   -31 51 44.74  1.0999 2.0353 148.2 20.9  1.0 169
2018 07 16 10  21 56 49.555   -31 51 56.58  1.1000 2.0356 148.2 20.9  1.0 169
2018 07 16 11  21 56 46.779   -31 52 08.41  1.1001 2.0359 148.2 20.9  1.0 169
2018 07 16 12  21 56 43.999   -31 52 20.22  1.1002 2.0362 148.3 20.9  1.1 170
2018 07 16 13  21 56 41.217   -31 52 32.02  1.1003 2.0365 148.3 20.9  1.1 170
2018 07 16 14  21 56 38.432   -31 52 43.80  1.1004 2.0368 148.4 20.9  1.1 170
2018 07 16 15  21 56 35.643   -31 52 55.57  1.1005 2.0371 148.4 20.9  1.2 170
2018 07 16 16  21 56 32.852   -31 53 07.32  1.1006 2.0374 148.5 20.9  1.2 171
2018 07 16 17  21 56 30.058   -31 53 19.06  1.1007 2.0377 148.5 20.9  1.2 171
2018 07 16 18  21 56 27.260   -31 53 30.78  1.1008 2.0380 148.5 20.9  1.2 171
2018 07 16 19  21 56 24.460   -31 53 42.50  1.1009 2.0383 148.6 20.9  1.3 171
2018 07 16 20  21 56 21.657   -31 53 54.19  1.1010 2.0386 148.6 20.9  1.3 171
2018 07 16 21  21 56 18.850   -31 54 05.87  1.1011 2.0389 148.7 20.9  1.3 172
2018 07 16 22  21 56 16.041   -31 54 17.54  1.1012 2.0392 148.7 20.9  1.4 172
2018 07 16 23  21 56 13.229   -31 54 29.19  1.1013 2.0395 148.7 20.9  1.4 172
2018 07 17 00  21 56 10.414   -31 54 40.83  1.1014 2.0398 148.8 20.9  1.4 172
2018 07 17 01  21 56 07.596   -31 54 52.45  1.1015 2.0401 148.8 20.9  1.5 172
2018 07 17 02  21 56 04.775   -31 55 04.06  1.1016 2.0404 148.9 20.9  1.5 173
2018 07 17 03  21 56 01.951   -31 55 15.65  1.1017 2.0407 148.9 20.9  1.5 173
2018 07 17 04  21 55 59.124   -31 55 27.23  1.1018 2.0409 148.9 20.9  1.6 173
2018 07 17 05  21 55 56.295   -31 55 38.80  1.1019 2.0412 149.0 20.9  1.6 173
2018 07 17 06  21 55 53.462   -31 55 50.34  1.1020 2.0415 149.0 20.9  1.6 173
2018 07 17 07  21 55 50.627   -31 56 01.88  1.1021 2.0418 149.1 20.9  1.7 174
2018 07 17 08  21 55 47.788   -31 56 13.39  1.1022 2.0421 149.1 20.9  1.7 174
2018 07 17 09  21 55 44.947   -31 56 24.90  1.1023 2.0424 149.1 20.9  1.7 174
2018 07 17 10  21 55 42.103   -31 56 36.39  1.1024 2.0427 149.2 20.9  1.8 174
2018 07 17 11  21 55 39.256   -31 56 47.86  1.1025 2.0430 149.2 20.9  1.8 174
2018 07 17 12  21 55 36.407   -31 56 59.32  1.1026 2.0433 149.3 20.9  1.8 174
2018 07 17 13  21 55 33.554   -31 57 10.76  1.1027 2.0436 149.3 20.9  1.9 175
2018 07 17 14  21 55 30.698   -31 57 22.19  1.1028 2.0439 149.4 20.9  1.9 175
2018 07 17 15  21 55 27.840   -31 57 33.60  1.1029 2.0442 149.4 20.9  1.9 175
2018 07 17 16  21 55 24.979   -31 57 44.99  1.1030 2.0445 149.4 20.9  2.0 175
2018 07 17 17  21 55 22.115   -31 57 56.37  1.1031 2.0448 149.5 20.9  2.0 175
2018 07 17 18  21 55 19.249   -31 58 07.74  1.1032 2.0451 149.5 20.9  2.1 175